This demonstration page uses our WeatherBlox Daily Observations layout. Learn more.

Left ArrowRight Arrow

Hourly Observations for January 17, 2018

Temp ( °F °C ) Dew Point ( °F °C ) Humidity (%) Winds ( mph kmh ) Pressure ( in mb ) Visibility ( mi km ) Precip ( " mm )
12:53 am 00:53 Cloudy 27 -2.8 -2 -18.9 28 28 S 9 15 30.62 1037 10 16 0.00 0.00
1:53 am 01:53 Cloudy 28 -2.2 -2 -18.9 27 27 S 6 9 30.61 1037 10 16 0.00 0.00
2:53 am 02:53 Cloudy 27 -2.8 -1 -18.3 29 29 SSE 6 9 30.60 1036 10 16 0.00 0.00
3:53 am 03:53 Cloudy 28 -2.2 -1 -18.3 28 28 SSE 6 9 30.58 1036 10 16 0.00 0.00
4:53 am 04:53 Cloudy 28 -2.2 -1 -18.3 28 28 SE 7 11 30.57 1035 10 16 0.00 0.00
5:53 am 05:53 Cloudy 28 -2.2 -1 -18.3 28 28 SE 7 11 30.56 1035 10 16 0.00 0.00
6:53 am 06:53 Cloudy 28 -2.2 -1 -18.3 28 28 ESE 7 11 30.55 1035 10 16 0.00 0.00
7:53 am 07:53 Cloudy 28 -2.2 -1 -18.3 28 28 SE 7 11 30.55 1035 10 16 0.00 0.00
8:53 am 08:53 Cloudy 28 -2.2 -1 -18.3 28 28 SE 12 19 30.55 1035 10 16 0.00 0.00
9:53 am 09:53 Cloudy 30 -1.1 -3 -19.4 24 24 SE 9 15 30.56 1035 10 16 0.00 0.00
10:53 am 10:53 Cloudy 32 0 -5 -20.6 20 20 SE 12 19 30.56 1035 10 16 0.00 0.00
11:53 am 11:53 Cloudy 33 0.6 -6 -21.1 18 18 SSE 10 17 30.53 1034 10 16 0.00 0.00
12:53 pm 12:53 Cloudy 34 1.1 -8 -22.2 16 16 SSE 13 20 30.49 1032 10 16 0.00 0.00
1:53 pm 13:53 Cloudy 35 1.7 -7 -21.7 16 16 SE 10 17 30.45 1031 10 16 0.00 0.00
2:53 pm 14:53 Cloudy 35 1.7 -6 -21.1 17 17 SE 8 13 30.45 1031 10 16 0.00 0.00
3:53 pm 15:53 Cloudy 35 1.7 -5 -20.6 17 17 ESE 10 17 30.44 1031 10 16 0.00 0.00
4:53 pm 16:53 Cloudy 35 1.7 -4 -20 18 18 SE 12 19 30.43 1031 10 16 0.00 0.00
5:53 pm 17:53 Partly Cloudy 34 1.1 -1 -18.3 22 22 SE 13 20 30.42 1030 10 16 0.00 0.00
6:53 pm 18:53 Clear 32 0 -1 -18.3 24 24 SE 9 15 30.41 1030 10 16 0.00 0.00
7:53 pm 19:53 Clear 31 -0.6 -1 -18.3 25 25 ESE 8 13 30.41 1030 10 16 0.00 0.00
8:53 pm 20:53 Clear 31 -0.6 -1 -18.3 25 25 ESE 9 15 30.41 1030 10 16 0.00 0.00
9:53 pm 21:53 Clear 30 -1.1 -1 -18.3 26 26 SE 8 13 30.42 1030 10 16 0.00 0.00
10:53 pm 22:53 Clear 30 -1.1 0 -17.8 27 27 SE 7 11 30.43 1030 10 16 0.00 0.00
11:53 pm 23:53 Clear 29 -1.7 0 -17.8 28 28 SE 8 13 30.42 1030 10 16 0.00 0.00

Powered by AerisWeather